Terminal Aerodrome Forecast
Issued by NWS

Home | Current Version | Previous Version | Graphics & Text | Print | Product List | Glossary Off
Versions: 1 2 3 4 5 6 7 8 9 10 11 12 13 14 15 16 17 18 19 20 21 22 23 24 25

000
FTUS43 KDDC 220834 AAA
TAFHYS
TAF AMD
KHYS 220834Z 2209/2306 25008KT P6SM SCT008 BKN120
     FM221000 31008KT P6SM -SHRA OVC045
     FM221600 32022G29KT P6SM BKN035
     FM230000 31010KT P6SM SCT100=

USA.gov is the U.S. government's official web portal to all federal, state and local government web resources and services.